User: anonymous   Login
Location: Unspecified
(0.0000°N, 0.0000°E)
Time: 11:34:17
(UTC+00:00)
Language:

Cosmos 1574 - Orbit

View from above orbital plane
View from above orbital plane
View from above satellite
View from above satellite

Ground track
Ground track

The orbit data is extracted from the following two-line orbital elements,

1 15055U 84062A   17328.36663435  .00000046  00000-0  31829-4 0  9990
2 15055  82.9594 227.2887 0028372 125.6080  11.4684 13.74293859676256
Epoch (UTC): 24 November 2017 08:47:57
Eccentricity: 0.0028372
inclination: 82.9594°
perigee height: 963 km
apogee height: 1005 km
right ascension of ascending node: 227.2887°
argument of perigee: 125.6080°
revolutions per day: 13.74293859
mean anomaly at epoch: 11.4684°
orbit number at epoch: 67625

The dashed part of the orbit path shows where the satellite is in the earth's shadow,  

DLR